Date String (YYYY-MM-DD hh:mm:ss) UTC,Instrument flags,absolute air pressure of the measurement (hPa),sample flow rate (lpm),inlet stack bypass flow (lpm),air temperature of the measurement (°C),ambient temperature measured by the external sensor (°C),aerosol sample conditioner tube jacket temperature (°C),OPC LED temperature (°C),internal box temperature (°C),relative humidity of the measurement (%),span deviation,mass concentration of particles derived from Lorenz-Mie calculation of OPC scattering (μg/m³),mass concentration of particles derived from Lorenz-Mie calculation of OPC scattering (μg/m³),mass concentration of particles derived from Lorenz-Mie calculation of OPC scattering (μg/m³)
DateTimeUTC,F1_M11,P_M11,Q1_M11,Q2_M11,T1_M11,T2_M11,T3_M11,T4_M11,T5_M11,U1_M11,ZSPAN_M11,X0_M11,X2_M11,X1_M11
2023-12-30 20:00:00,SystemResetWarning,0828.6,5.01,000.00,025.4,024.8,000.0,033.5,026.9,7.7,0000.0,0010.09,0003.91,0003.57
2023-12-30 20:01:00,SystemResetWarning,0828.6,5.00,000.00,025.4,024.8,000.0,033.5,026.9,7.6,0000.0,0010.00,0003.86,0003.56
2023-12-30 20:02:00,SystemResetWarning,0828.6,4.99,000.00,025.4,024.9,000.0,033.5,026.9,7.7,0000.0,0009.96,0003.83,0003.55
2023-12-30 20:03:00,SystemResetWarning,0828.6,4.99,000.00,025.5,024.9,000.0,033.6,027.0,7.8,0000.0,0009.19,0003.84,0003.54
2023-12-30 20:04:00,SystemResetWarning,0828.6,5.01,000.00,025.5,024.9,000.0,033.6,027.0,7.8,0000.0,0008.32,0003.84,0003.54
2023-12-30 20:05:00,SystemResetWarning,0828.6,5.01,000.00,025.5,024.9,000.0,033.6,027.0,7.9,0000.0,0008.25,0003.81,0003.55
2023-12-30 20:06:00,SystemResetWarning,0828.6,5.01,000.00,025.5,024.9,000.0,033.6,027.1,7.7,0000.0,0008.11,0003.80,0003.55
2023-12-30 20:07:00,SystemResetWarning,0828.6,5.00,000.00,025.5,024.9,000.0,033.6,027.1,7.7,0000.0,0007.97,0003.80,0003.55
2023-12-30 20:08:00,SystemResetWarning,0828.6,4.99,000.00,025.6,025.0,000.0,033.7,027.1,7.8,0000.0,0007.91,0003.81,0003.55
2023-12-30 20:09:00,SystemResetWarning,0828.6,4.99,000.00,025.6,025.0,000.0,033.7,027.1,7.8,0000.0,0007.42,0003.84,0003.57
2023-12-30 20:10:00,SystemResetWarning,0828.6,5.00,000.00,025.6,025.0,000.0,033.7,027.1,7.8,0000.0,0007.05,0003.87,0003.60
2023-12-30 20:11:00,SystemResetWarning,0828.6,5.00,000.00,025.6,025.0,000.0,033.7,027.2,7.8,0000.0,0006.59,0003.87,0003.61
2023-12-30 20:12:00,SystemResetWarning,0828.6,5.01,000.00,025.6,025.0,000.0,033.7,027.2,7.7,0000.0,0006.89,0003.90,0003.63
2023-12-30 20:13:00,SystemResetWarning,0828.6,5.00,000.00,025.7,025.1,000.0,033.8,027.2,7.6,0000.0,0006.77,0003.96,0003.69
2023-12-30 20:14:00,SystemResetWarning,0828.5,4.99,000.00,025.7,025.1,000.0,033.8,027.2,7.7,0000.0,0006.87,0004.01,0003.75
2023-12-30 20:15:00,SystemResetWarning,0828.6,4.99,000.00,025.7,025.1,000.0,033.8,027.3,7.7,0000.0,0007.33,0004.08,0003.81
2023-12-30 20:16:00,SystemResetWarning,0828.5,4.99,000.00,025.7,025.1,000.0,033.8,027.3,7.8,0000.0,0007.50,0004.12,0003.85
2023-12-30 20:17:00,SystemResetWarning,0828.5,5.00,000.00,025.7,025.2,000.0,033.8,027.3,7.8,0000.0,0007.55,0004.16,0003.89
2023-12-30 20:18:00,SystemResetWarning,0828.5,5.00,000.00,025.8,025.2,000.0,033.9,027.3,7.7,0000.0,0007.64,0004.21,0003.93
2023-12-30 20:19:00,SystemResetWarning,0828.6,5.00,000.00,025.8,025.2,000.0,033.9,027.3,7.7,0000.0,0007.98,0004.25,0003.98
2023-12-30 20:20:00,SystemResetWarning,0828.6,5.02,000.00,025.8,025.2,000.0,033.9,027.3,7.6,0000.0,0008.29,0004.29,0004.01
2023-12-30 20:21:00,SystemResetWarning,0828.5,4.99,000.00,025.8,025.2,000.0,033.9,027.4,7.6,0000.0,0008.30,0004.28,0004.03
2023-12-30 20:22:00,SystemResetWarning,0828.5,4.99,000.00,025.8,025.3,000.0,033.9,027.4,7.6,0000.0,0008.20,0004.27,0004.03
2023-12-30 20:23:00,SystemResetWarning,0828.6,5.00,000.00,025.9,025.3,000.0,034.0,027.4,7.6,0000.0,0008.07,0004.31,0004.05
2023-12-30 20:24:00,SystemResetWarning,0828.6,5.01,000.00,025.9,025.3,000.0,034.0,027.4,7.7,0000.0,0008.19,0004.29,0004.03
2023-12-30 20:25:00,SystemResetWarning,0828.6,5.00,000.00,025.9,025.3,000.0,034.0,027.5,7.6,0000.0,0008.19,0004.28,0004.01
2023-12-30 20:26:00,SystemResetWarning,0828.6,5.00,000.00,025.9,025.3,000.0,034.0,027.5,7.6,0000.0,0008.02,0004.27,0004.01
2023-12-30 20:27:00,SystemResetWarning,0828.6,5.01,000.00,026.0,025.4,000.0,034.0,027.5,7.5,0000.0,0007.96,0004.29,0004.03
2023-12-30 20:28:00,SystemResetWarning,0828.6,5.00,000.00,026.0,025.4,000.0,034.1,027.5,7.6,0000.0,0008.00,0004.33,0004.06
2023-12-30 20:29:00,SystemResetWarning,0828.6,5.00,000.00,026.0,025.4,000.0,034.1,027.5,7.6,0000.0,0008.06,0004.36,0004.07
2023-12-30 20:30:00,SystemResetWarning,0828.6,5.00,000.00,026.0,025.4,000.0,034.1,027.6,7.6,0000.0,0007.86,0004.36,0004.08
2023-12-30 20:31:00,SystemResetWarning,0828.5,5.00,000.00,026.0,025.4,000.0,034.1,027.6,7.6,0000.0,0007.39,0004.34,0004.07
2023-12-30 20:32:00,SystemResetWarning,0828.6,5.00,000.00,026.1,025.5,000.0,034.2,027.6,7.5,0000.0,0007.23,0004.33,0004.06
2023-12-30 20:33:00,SystemResetWarning,0828.6,5.00,000.00,026.1,025.5,000.0,034.2,027.6,7.6,0000.0,0007.39,0004.36,0004.09
2023-12-30 20:34:00,SystemResetWarning,0828.6,4.99,000.00,026.1,025.5,000.0,034.2,027.6,7.6,0000.0,0007.29,0004.36,0004.11
2023-12-30 20:35:00,SystemResetWarning,0828.6,5.00,000.00,026.1,025.5,000.0,034.2,027.6,7.5,0000.0,0006.85,0004.37,0004.13
2023-12-30 20:36:00,SystemResetWarning,0828.6,5.00,000.00,026.2,025.6,000.0,034.2,027.7,7.5,0000.0,0006.89,0004.37,0004.13
2023-12-30 20:37:00,SystemResetWarning,0828.5,5.00,000.00,026.2,025.6,000.0,034.3,027.7,7.5,0000.0,0006.97,0004.38,0004.11
2023-12-30 20:38:00,SystemResetWarning,0828.5,5.00,000.00,026.2,025.6,000.0,034.3,027.7,7.6,0000.0,0006.81,0004.35,0004.07
2023-12-30 20:39:00,SystemResetWarning,0828.5,5.00,000.00,026.2,025.6,000.0,034.3,027.7,7.6,0000.0,0006.78,0004.33,0004.04
2023-12-30 20:40:00,SystemResetWarning,0828.5,5.00,000.00,026.2,025.6,000.0,034.3,027.7,7.4,0000.0,0006.81,0004.31,0004.03
2023-12-30 20:41:00,SystemResetWarning,0828.5,5.01,000.00,026.2,025.6,000.0,034.3,027.7,7.4,0000.0,0007.26,0004.34,0004.05
2023-12-30 20:42:00,SystemResetWarning,0828.5,5.00,000.00,026.3,025.7,000.0,034.4,027.8,7.5,0000.0,0007.38,0004.36,0004.05
2023-12-30 20:43:00,SystemResetWarning,0828.6,5.00,000.00,026.3,025.7,000.0,034.4,027.8,7.4,0000.0,0008.10,0004.40,0004.07
2023-12-30 20:44:00,SystemResetWarning,0828.6,5.00,000.00,026.3,025.7,000.0,034.4,027.8,7.4,0000.0,0008.17,0004.41,0004.08
2023-12-30 20:45:00,SystemResetWarning,0828.5,5.00,000.00,026.3,025.7,000.0,034.4,027.8,7.4,0000.0,0008.16,0004.42,0004.09
2023-12-30 20:46:00,SystemResetWarning,0828.6,4.99,000.00,026.3,025.7,000.0,034.4,027.9,7.4,0000.0,0009.28,0004.47,0004.12
2023-12-30 20:47:00,SystemResetWarning,0828.6,4.99,000.00,026.4,025.8,000.0,034.5,027.9,7.4,0000.0,0009.32,0004.51,0004.14
2023-12-30 20:48:00,SystemResetWarning,0828.6,4.99,000.00,026.4,025.8,000.0,034.5,027.9,7.4,0000.0,0009.22,0004.49,0004.16
2023-12-30 20:49:00,SystemResetWarning,0828.6,5.00,000.00,026.4,025.8,000.0,034.5,027.9,7.4,0000.0,0009.28,0004.52,0004.18
2023-12-30 20:50:00,SystemResetWarning,0828.5,5.01,000.00,026.4,025.8,000.0,034.5,027.9,7.4,0000.0,0009.38,0004.54,0004.21
2023-12-30 20:51:00,SystemResetWarning,0828.5,5.00,000.00,026.4,025.8,000.0,034.5,027.9,7.4,0000.0,0009.72,0004.55,0004.22
2023-12-30 20:52:00,SystemResetWarning,0828.6,5.00,000.00,026.5,025.9,000.0,034.6,028.0,7.4,0000.0,0009.67,0004.54,0004.22
2023-12-30 20:53:00,SystemResetWarning,0828.6,5.00,000.00,026.5,025.9,000.0,034.6,028.0,7.6,0000.0,0009.64,0004.52,0004.22
2023-12-30 20:54:00,SystemResetWarning,0828.6,5.00,000.00,026.5,025.9,000.0,034.6,028.0,7.5,0000.0,0009.15,0004.49,0004.21
2023-12-30 20:55:00,SystemResetWarning,0828.5,4.99,000.00,026.5,025.9,000.0,034.6,028.0,7.5,0000.0,0008.82,0004.48,0004.18
2023-12-30 20:56:00,SystemResetWarning,0828.6,5.00,000.00,026.5,025.9,000.0,034.6,028.0,7.5,0000.0,0008.82,0004.47,0004.17
2023-12-30 20:57:00,SystemResetWarning,0828.6,4.99,000.00,026.5,025.9,000.0,034.7,028.1,7.5,0000.0,0007.93,0004.45,0004.15
2023-12-30 20:58:00,SystemResetWarning,0828.6,5.00,000.00,026.6,026.0,000.0,034.7,028.1,7.4,0000.0,0007.65,0004.42,0004.14
2023-12-30 20:59:00,SystemResetWarning,0828.6,5.00,000.00,026.6,026.0,000.0,034.7,028.1,7.4,0000.0,0008.23,0004.44,0004.14
